Find Starlink 34022

NORAD ID: 63866 Int'l Des: 2025-094 Owner: SPXS Country: US Constellation: starlink operational
LEOCIRCULAR

当前视图

正在加载3D地球...

About Starlink 34022

Starlink 34022 (NORAD 63866) is a starlink constellation satellite (v2 mini) launched May 10, 2025 by SPXS of US. It operates in LEO, CIRCULAR orbit with a mass of 575.00 kg.

即将过境

Passes for default location (London). Set your location on the main map for personalized predictions.

高度历史

Loading altitude history...

两行轨道根数

1 63866U 25094C 26263.29878297 .00005557 00000-0 19763-3 0 9991
2 63866 69.9996 101.3920 0002810 272.5139 87.5714 15.29578542 76413
Epoch: Sep 20, 2026 • Age: 14 hours

当前状态

高度 484.1 km
远地点 / 近地点 N/A
速度 7.63 km/s
星下点 42.41°N, 156.91°E
发射日期 May 10, 2025
运行时间 1.3 years
类型 internet

技术详情

分类 Payload
质量 575.00 kg
干质量 530.00 kg
长度 0.30 m
跨度 29.00 m
形状 ? Box + pan
制造商 SPXS
平台类型 Starlink V2MO
阶段状态 In Orbit
所有者/国家 SPXS/US

Most Searched